FLX906B CYYZ-KIAH

Flight info

Callsign FLX906B
Flight time N/A
Altitude 36000
Route MIXUT7 GNTRY DCT RINTE Q139 IIU DCT BWG DCT SQS DCT AEX GESNR2
Aircraft B77W/H-SDE1E2E3FGHIJ2J3J4J5M1RWXY/LB1D1

Departure

Time 2026-05-03 20:17
Airport Toronto Pearson International Airport (CYYZ)

Arrival

Time N/A
Airport George Bush Intercontinental Airport (KIAH)
Time Latitude Longitude Altitude Speed Heading
2026-05-03 20:15 43.68815 -79.63957 551 ft 14 kts 34°
2026-05-03 20:15 43.68898 -79.63847 552 ft 19 kts 46°
2026-05-03 20:15 43.68995 -79.63706 554 ft 19 kts 47°
2026-05-03 20:15 43.69083 -79.63578 555 ft 17 kts 46°
2026-05-03 20:16 43.69161 -79.63468 556 ft 15 kts 40°
2026-05-03 20:16 43.69268 -79.63421 557 ft 20 kts
2026-05-03 20:16 43.69400 -79.63483 557 ft 18 kts 302°
2026-05-03 20:16 43.69360 -79.63586 556 ft 24 kts 227°
2026-05-03 20:17 43.69056 -79.64027 553 ft 102 kts 226°
2026-05-03 20:17 43.68404 -79.64968 627 ft 161 kts 226°
2026-05-03 20:17 43.67599 -79.66175 1207 ft 180 kts 229°
2026-05-03 20:17 43.66762 -79.67465 2111 ft 183 kts 230°
2026-05-03 20:18 43.65908 -79.68774 2696 ft 188 kts 230°
2026-05-03 20:18 43.64989 -79.70110 3137 ft 201 kts 227°
2026-05-03 20:18 43.63945 -79.71522 3540 ft 218 kts 230°
2026-05-03 20:18 43.62951 -79.73189 4012 ft 232 kts 234°
2026-05-03 20:19 43.61945 -79.74967 4714 ft 237 kts 235°
2026-05-03 20:19 43.60860 -79.76694 5473 ft 242 kts 226°
2026-05-03 20:19 43.59568 -79.78186 6223 ft 245 kts 225°
2026-05-03 20:19 43.58256 -79.79658 6935 ft 249 kts 225°
2026-05-03 20:20 43.56894 -79.81183 7631 ft 253 kts 225°
2026-05-03 20:20 43.55527 -79.82712 8275 ft 258 kts 225°
2026-05-03 20:20 43.54126 -79.84280 8913 ft 263 kts 226°
2026-05-03 20:20 43.52696 -79.85877 9560 ft 267 kts 226°
2026-05-03 20:21 43.51249 -79.87492 10152 ft 272 kts 226°
2026-05-03 20:21 43.49740 -79.89181 10495 ft 288 kts 226°
2026-05-03 20:21 43.48140 -79.90973 10799 ft 305 kts 225°
2026-05-03 20:21 43.46449 -79.92863 11156 ft 322 kts 225°
2026-05-03 20:22 43.44663 -79.94855 11538 ft 339 kts 225°
2026-05-03 20:22 43.42774 -79.96958 11922 ft 355 kts 225°
2026-05-03 20:22 43.40826 -79.99119 12555 ft 365 kts 225°
2026-05-03 20:22 43.38838 -80.01318 13313 ft 372 kts 224°
2026-05-03 20:23 43.36810 -80.03557 14169 ft 377 kts 224°
2026-05-03 20:23 43.34745 -80.05833 14831 ft 382 kts 224°
2026-05-03 20:23 43.32674 -80.08111 14990 ft 382 kts 224°
2026-05-03 20:23 43.30607 -80.10384 14976 ft 382 kts 225°
2026-05-03 20:24 43.28673 -80.12839 15009 ft 381 kts 230°
2026-05-03 20:24 43.26768 -80.15390 14999 ft 379 kts 230°
2026-05-03 20:24 43.24885 -80.17914 15016 ft 379 kts 230°
2026-05-03 20:24 43.23014 -80.20417 14982 ft 379 kts 230°
2026-05-03 20:25 43.21137 -80.22938 14982 ft 378 kts 232°
2026-05-03 20:25 43.19465 -80.25706 15004 ft 377 kts 240°
2026-05-03 20:25 43.18133 -80.28779 14996 ft 374 kts 248°
2026-05-03 20:25 43.16983 -80.31938 14993 ft 371 kts 248°
2026-05-03 20:26 43.15843 -80.35092 14981 ft 369 kts 248°
2026-05-03 20:26 43.14696 -80.38264 14985 ft 368 kts 248°
2026-05-03 20:26 43.13563 -80.41391 14988 ft 367 kts 248°
2026-05-03 20:26 43.12442 -80.44481 14973 ft 371 kts 248°
2026-05-03 20:27 43.11259 -80.47742 15568 ft 385 kts 248°
2026-05-03 20:27 43.10090 -80.50951 16886 ft 379 kts 248°
2026-05-03 20:27 43.08920 -80.54161 17981 ft 379 kts 248°
2026-05-03 20:27 43.07742 -80.57393 18715 ft 388 kts 248°
2026-05-03 20:28 43.06516 -80.60755 19488 ft 396 kts 248°
2026-05-03 20:28 43.05289 -80.64111 20354 ft 400 kts 248°
2026-05-03 20:28 43.04053 -80.67485 21230 ft 404 kts 248°
2026-05-03 20:28 43.02785 -80.70946 22075 ft 409 kts 248°
2026-05-03 20:29 43.01508 -80.74426 22906 ft 413 kts 248°
2026-05-03 20:29 43.00220 -80.77930 23680 ft 418 kts 248°
2026-05-03 20:29 42.98901 -80.81515 24388 ft 424 kts 247°
2026-05-03 20:29 42.97581 -80.85098 25115 ft 428 kts 247°
2026-05-03 20:30 42.96251 -80.88702 25875 ft 431 kts 247°
2026-05-03 20:30 42.94888 -80.92391 26619 ft 434 kts 248°
2026-05-03 20:30 42.93533 -80.96055 27248 ft 439 kts 247°
2026-05-03 20:30 42.92141 -80.99815 27819 ft 445 kts 247°
2026-05-03 20:31 42.90742 -81.03587 28459 ft 449 kts 247°
2026-05-03 20:31 42.89340 -81.07360 29121 ft 452 kts 247°
2026-05-03 20:31 42.87912 -81.11198 29868 ft 452 kts 247°
2026-05-03 20:31 42.86482 -81.15037 30745 ft 449 kts 247°
2026-05-03 20:32 42.85070 -81.18822 31567 ft 445 kts 248°
2026-05-03 20:32 42.83682 -81.22542 32219 ft 443 kts 248°
2026-05-03 20:32 42.82290 -81.26270 32697 ft 443 kts 247°
2026-05-03 20:32 42.80885 -81.30025 33080 ft 445 kts 247°
2026-05-03 20:33 42.79490 -81.33751 33435 ft 446 kts 247°
2026-05-03 20:33 42.78077 -81.37518 33822 ft 446 kts 247°
2026-05-03 20:33 42.76548 -81.41203 34215 ft 448 kts 241°
2026-05-03 20:33 42.74675 -81.44537 34542 ft 454 kts 233°
2026-05-03 20:34 42.72536 -81.47707 34927 ft 453 kts 232°
2026-05-03 20:34 42.70385 -81.50835 35323 ft 451 kts 232°
2026-05-03 20:34 42.68260 -81.53924 35675 ft 450 kts 232°
2026-05-03 20:34 42.66103 -81.57059 35839 ft 452 kts 232°
2026-05-03 20:35 42.63948 -81.60187 35871 ft 451 kts 232°
2026-05-03 20:35 42.59716 -81.66323 35891 ft 447 kts 231°
2026-05-03 20:36 42.55426 -81.72536 35888 ft 449 kts 231°
2026-05-03 20:36 42.51147 -81.78624 35893 ft 450 kts 227°
2026-05-03 20:37 42.46241 -81.83996 35900 ft 453 kts 223°
2026-05-03 20:37 42.41281 -81.89233 35901 ft 454 kts 223°
2026-05-03 20:38 42.36335 -81.94445 35912 ft 452 kts 223°
2026-05-03 20:38 42.31350 -81.99692 35915 ft 453 kts 223°
2026-05-03 20:39 42.26398 -82.04892 35916 ft 452 kts 223°
2026-05-03 20:39 42.21467 -82.10062 35906 ft 452 kts 223°
2026-05-03 20:40 42.16517 -82.15241 35914 ft 451 kts 223°
2026-05-03 20:40 42.11548 -82.20428 35903 ft 451 kts 224°
2026-05-03 20:41 42.06629 -82.25554 35923 ft 450 kts 224°
2026-05-03 20:41 42.01686 -82.30695 35921 ft 450 kts 224°
2026-05-03 20:42 41.96727 -82.35842 35922 ft 449 kts 224°
2026-05-03 20:42 41.91791 -82.40955 35931 ft 449 kts 224°
2026-05-03 20:43 41.86815 -82.46098 35928 ft 450 kts 224°
2026-05-03 20:43 41.81887 -82.51182 35925 ft 449 kts 224°
2026-05-03 20:44 41.76924 -82.56291 35925 ft 449 kts 224°
2026-05-03 20:44 41.71960 -82.61391 35921 ft 449 kts 224°
2026-05-03 20:45 41.67019 -82.66458 35936 ft 447 kts 224°
2026-05-03 20:45 41.62034 -82.71561 35938 ft 448 kts 224°
2026-05-03 20:46 41.57097 -82.76603 35945 ft 447 kts 224°
2026-05-03 20:46 41.52143 -82.81654 35945 ft 448 kts 224°
2026-05-03 20:47 41.47222 -82.86659 35951 ft 447 kts 224°
2026-05-03 20:47 41.42283 -82.91674 35957 ft 446 kts 224°
2026-05-03 20:48 41.37362 -82.96661 35950 ft 446 kts 224°
2026-05-03 20:48 41.32404 -83.01675 35950 ft 445 kts 224°
2026-05-03 20:49 41.27498 -83.06627 35955 ft 444 kts 224°
2026-05-03 20:49 41.22589 -83.11573 35951 ft 444 kts 224°
2026-05-03 20:50 41.17662 -83.16527 35952 ft 442 kts 224°
2026-05-03 20:50 41.12754 -83.21452 35960 ft 442 kts 224°
2026-05-03 20:51 41.07870 -83.26344 35970 ft 441 kts 225°
2026-05-03 20:51 41.02946 -83.31267 35965 ft 442 kts 225°
2026-05-03 20:52 40.98066 -83.36137 35973 ft 439 kts 225°
2026-05-03 20:52 40.93191 -83.40992 35972 ft 440 kts 225°
2026-05-03 20:53 40.88276 -83.45878 35973 ft 440 kts 225°
2026-05-03 20:53 40.83381 -83.50736 35966 ft 440 kts 225°
2026-05-03 20:54 40.78466 -83.55603 35973 ft 441 kts 225°
2026-05-03 20:54 40.71104 -83.62875 35967 ft 439 kts 225°
2026-05-03 20:55 40.66193 -83.67715 35979 ft 438 kts 224°
2026-05-03 20:55 40.61319 -83.72510 35984 ft 437 kts 225°
2026-05-03 20:56 40.56424 -83.77319 35984 ft 440 kts 225°
2026-05-03 20:56 40.51527 -83.82115 35992 ft 435 kts 225°
2026-05-03 20:57 40.46658 -83.86880 35997 ft 438 kts 225°
2026-05-03 20:57 40.41792 -83.91632 36002 ft 437 kts 225°
2026-05-03 20:58 40.36912 -83.96387 36004 ft 436 kts 225°
2026-05-03 20:58 40.32055 -84.01112 36005 ft 436 kts 225°
2026-05-03 20:59 40.27003 -84.05559 35996 ft 443 kts 218°
2026-05-03 20:59 40.21592 -84.09520 36006 ft 447 kts 218°
2026-05-03 21:00 40.17079 -84.12802 36007 ft 444 kts 218°
2026-05-03 21:00 40.10765 -84.17384 36017 ft 444 kts 218°
2026-05-03 21:01 40.05370 -84.21291 36029 ft 443 kts 218°
2026-05-03 21:01 39.99966 -84.25195 36055 ft 441 kts 218°
2026-05-03 21:02 39.97286 -84.27129 35861 ft 441 kts 218°
2026-05-03 21:02 39.94577 -84.29083 35979 ft 444 kts 218°
2026-05-03 21:02 39.89139 -84.32999 36039 ft 446 kts 218°
2026-05-03 21:03 39.83735 -84.36875 36045 ft 443 kts 218°
2026-05-03 21:03 39.78300 -84.40771 36039 ft 445 kts 218°
2026-05-03 21:04 39.72902 -84.44629 36037 ft 442 kts 218°
2026-05-03 21:04 39.67468 -84.48511 36044 ft 445 kts 218°
2026-05-03 21:05 39.62073 -84.52352 36034 ft 440 kts 218°
2026-05-03 21:05 39.56717 -84.56165 36041 ft 443 kts 218°
2026-05-03 21:06 39.51270 -84.60033 36051 ft 444 kts 218°
2026-05-03 21:06 39.45857 -84.63869 36045 ft 445 kts 218°
2026-05-03 21:07 39.40414 -84.67720 36053 ft 443 kts 218°
2026-05-03 21:07 39.34975 -84.71562 36050 ft 446 kts 217°
2026-05-03 21:08 39.29591 -84.75358 36051 ft 445 kts 217°
2026-05-03 21:08 39.24134 -84.79198 36045 ft 445 kts 218°
2026-05-03 21:09 39.18706 -84.83012 36050 ft 447 kts 218°
2026-05-03 21:09 39.13259 -84.86829 36051 ft 443 kts 218°
2026-05-03 21:10 39.07779 -84.90668 36046 ft 447 kts 218°
2026-05-03 21:10 39.02322 -84.94479 36049 ft 445 kts 218°
2026-05-03 21:11 38.96878 -84.98277 36052 ft 444 kts 218°
2026-05-03 21:11 38.91439 -85.02065 36067 ft 446 kts 218°
2026-05-03 21:12 38.85963 -85.05871 36050 ft 445 kts 218°
2026-05-03 21:12 38.80530 -85.09641 36027 ft 444 kts 218°
2026-05-03 21:13 38.75063 -85.13430 36045 ft 447 kts 217°
2026-05-03 21:13 38.69607 -85.17200 36039 ft 444 kts 217°
2026-05-03 21:14 38.64126 -85.20982 36041 ft 443 kts 217°
2026-05-03 21:14 38.58680 -85.24735 36044 ft 447 kts 217°
2026-05-03 21:15 38.53236 -85.28476 36044 ft 443 kts 217°
2026-05-03 21:15 38.47764 -85.32234 36038 ft 444 kts 217°
2026-05-03 21:16 38.42331 -85.35957 36043 ft 445 kts 217°
2026-05-03 21:16 38.36883 -85.39683 36039 ft 443 kts 217°
2026-05-03 21:17 38.32314 -85.42805 36047 ft 446 kts 217°
2026-05-03 21:17 38.25965 -85.47132 36045 ft 443 kts 217°
2026-05-03 21:18 38.20497 -85.50855 36048 ft 446 kts 217°
2026-05-03 21:18 38.15035 -85.54563 36047 ft 442 kts 217°
2026-05-03 21:19 38.09594 -85.58259 36042 ft 444 kts 218°
2026-05-03 21:19 38.04299 -85.62247 36041 ft 442 kts 219°
2026-05-03 21:20 37.99006 -85.66271 36058 ft 443 kts 219°
2026-05-03 21:20 37.93645 -85.70323 36057 ft 442 kts 218°
2026-05-03 21:21 37.88346 -85.74314 36057 ft 443 kts 218°
2026-05-03 21:21 37.83051 -85.78291 36055 ft 443 kts 218°
2026-05-03 21:22 37.77733 -85.82275 36056 ft 442 kts 218°
2026-05-03 21:22 37.72400 -85.86265 36061 ft 445 kts 218°
2026-05-03 21:23 37.67099 -85.90221 36063 ft 443 kts 218°
2026-05-03 21:23 37.61757 -85.94201 36064 ft 442 kts 218°
2026-05-03 21:24 37.56476 -85.98130 36064 ft 442 kts 218°
2026-05-03 21:24 37.51131 -86.02100 36058 ft 443 kts 218°
2026-05-03 21:25 37.45833 -86.06028 36060 ft 444 kts 218°
2026-05-03 21:25 37.40503 -86.09974 36063 ft 444 kts 218°
2026-05-03 21:26 37.35144 -86.13934 36063 ft 445 kts 218°
2026-05-03 21:26 37.29815 -86.17864 36065 ft 444 kts 218°
2026-05-03 21:27 37.24472 -86.21800 36062 ft 445 kts 218°
2026-05-03 21:27 37.19122 -86.25734 36063 ft 446 kts 217°
2026-05-03 21:28 37.13797 -86.29642 36066 ft 444 kts 217°
2026-05-03 21:28 37.08414 -86.33588 36067 ft 447 kts 218°
2026-05-03 21:29 37.03082 -86.37487 36076 ft 444 kts 217°
2026-05-03 21:29 36.97715 -86.41436 36081 ft 444 kts 220°
2026-05-03 21:30 36.93019 -86.46304 36092 ft 436 kts 230°
2026-05-03 21:30 36.88607 -86.51477 36076 ft 435 kts 230°
2026-05-03 21:31 36.84167 -86.56670 36063 ft 437 kts 230°
2026-05-03 21:31 36.79704 -86.61873 36056 ft 436 kts 230°
2026-05-03 21:32 36.75257 -86.67047 36069 ft 437 kts 229°
2026-05-03 21:32 36.70766 -86.72261 36072 ft 438 kts 229°
2026-05-03 21:33 36.66322 -86.77412 36070 ft 438 kts 229°
2026-05-03 21:33 36.61832 -86.82608 36069 ft 440 kts 229°
2026-05-03 21:34 36.57345 -86.87791 36071 ft 439 kts 229°
2026-05-03 21:34 36.52846 -86.92979 36071 ft 440 kts 229°
2026-05-03 21:35 36.48352 -86.98153 36069 ft 441 kts 229°
2026-05-03 21:35 36.43824 -87.03356 36069 ft 441 kts 229°
2026-05-03 21:36 36.39307 -87.08540 36074 ft 442 kts 229°
2026-05-03 21:36 36.34806 -87.13695 36074 ft 443 kts 229°
2026-05-03 21:37 36.30245 -87.18912 36073 ft 442 kts 229°
2026-05-03 21:37 36.25745 -87.24049 36074 ft 443 kts 229°
2026-05-03 21:38 36.21180 -87.29252 36072 ft 442 kts 229°
2026-05-03 21:38 36.16656 -87.34401 36078 ft 445 kts 229°
2026-05-03 21:39 36.12106 -87.39569 36072 ft 443 kts 229°
2026-05-03 21:39 36.07551 -87.44737 36072 ft 445 kts 229°
2026-05-03 21:40 36.02973 -87.49921 36074 ft 445 kts 228°
2026-05-03 21:40 35.98415 -87.55074 36076 ft 447 kts 228°
2026-05-03 21:41 35.93802 -87.60279 36082 ft 446 kts 229°
2026-05-03 21:41 35.89241 -87.65417 36067 ft 446 kts 228°
2026-05-03 21:42 35.84613 -87.70625 36077 ft 449 kts 228°
2026-05-03 21:42 35.79966 -87.75843 36073 ft 446 kts 227°
2026-05-03 21:43 35.75369 -87.80998 36074 ft 449 kts 227°
2026-05-03 21:43 35.70744 -87.86175 36074 ft 448 kts 227°
2026-05-03 21:44 35.66132 -87.91329 36075 ft 449 kts 227°
2026-05-03 21:44 35.61525 -87.96470 36083 ft 449 kts 227°
2026-05-03 21:45 35.56891 -88.01632 36082 ft 448 kts 227°
2026-05-03 21:45 35.52245 -88.06798 36079 ft 449 kts 227°
2026-05-03 21:46 35.47617 -88.11936 36080 ft 448 kts 227°
2026-05-03 21:46 35.42987 -88.17069 36087 ft 449 kts 227°
2026-05-03 21:47 35.38328 -88.22224 36079 ft 450 kts 227°
2026-05-03 21:47 35.33685 -88.27354 36084 ft 451 kts 227°
2026-05-03 21:48 35.29026 -88.32494 36088 ft 449 kts 227°
2026-05-03 21:48 35.24368 -88.37624 36100 ft 451 kts 227°
2026-05-03 21:49 35.19712 -88.42743 36100 ft 450 kts 227°
2026-05-03 21:49 35.15032 -88.47881 36096 ft 451 kts 227°
2026-05-03 21:50 35.10365 -88.52997 36097 ft 452 kts 227°
2026-05-03 21:50 35.05667 -88.58137 36100 ft 451 kts 227°
2026-05-03 21:51 35.01013 -88.63222 36091 ft 451 kts 227°
2026-05-03 21:51 34.96426 -88.68226 36103 ft 454 kts 226°
2026-05-03 21:52 34.91692 -88.73380 36103 ft 453 kts 226°
2026-05-03 21:52 34.86959 -88.78527 36087 ft 455 kts 227°
2026-05-03 21:53 34.82219 -88.83672 36080 ft 455 kts 226°
2026-05-03 21:53 34.77488 -88.88800 36079 ft 455 kts 227°
2026-05-03 21:54 34.72733 -88.93945 36082 ft 456 kts 226°
2026-05-03 21:54 34.67993 -88.99065 36077 ft 455 kts 227°
2026-05-03 21:55 34.63274 -89.04156 36074 ft 458 kts 227°
2026-05-03 21:55 34.58509 -89.09287 36077 ft 457 kts 227°
2026-05-03 21:56 34.53760 -89.14393 36076 ft 458 kts 226°
2026-05-03 21:56 34.48974 -89.19530 36075 ft 456 kts 227°
2026-05-03 21:57 34.44220 -89.24626 36071 ft 458 kts 226°
2026-05-03 21:57 34.39455 -89.29724 36075 ft 457 kts 226°
2026-05-03 21:58 34.34697 -89.34807 36079 ft 458 kts 227°
2026-05-03 21:58 34.29894 -89.39931 36078 ft 457 kts 226°
2026-05-03 21:59 34.25119 -89.45016 36083 ft 458 kts 227°
2026-05-03 21:59 34.20363 -89.50073 36074 ft 458 kts 227°
2026-05-03 22:00 34.15546 -89.55187 36077 ft 459 kts 226°
2026-05-03 22:00 34.10767 -89.60252 36074 ft 460 kts 227°
2026-05-03 22:01 34.05930 -89.65372 36074 ft 460 kts 226°
2026-05-03 22:01 34.01087 -89.70489 36077 ft 460 kts 226°
2026-05-03 22:02 33.96244 -89.75599 36078 ft 462 kts 226°
2026-05-03 22:02 33.91459 -89.80638 36077 ft 459 kts 226°
2026-05-03 22:03 33.86607 -89.85741 36087 ft 461 kts 226°
2026-05-03 22:03 33.81746 -89.90846 36078 ft 461 kts 226°
2026-05-03 22:04 33.76908 -89.95918 36070 ft 462 kts 226°
2026-05-03 22:04 33.72045 -90.01008 36076 ft 461 kts 226°
2026-05-03 22:05 33.67203 -90.06068 36080 ft 461 kts 226°
2026-05-03 22:05 33.62351 -90.11131 36082 ft 461 kts 227°
2026-05-03 22:06 33.57513 -90.16172 36078 ft 461 kts 227°
2026-05-03 22:06 33.52664 -90.21217 36083 ft 461 kts 227°
2026-05-03 22:07 33.47805 -90.26263 36081 ft 461 kts 227°
2026-05-03 22:07 33.42952 -90.31308 36078 ft 461 kts 227°
2026-05-03 22:08 33.38108 -90.36348 36071 ft 460 kts 227°
2026-05-03 22:08 33.33264 -90.41379 36069 ft 462 kts 227°
2026-05-03 22:09 33.28407 -90.46416 36079 ft 461 kts 227°
2026-05-03 22:10 33.21146 -90.53930 36083 ft 461 kts 227°
2026-05-03 22:10 33.16277 -90.58960 36080 ft 462 kts 227°
2026-05-03 22:11 33.11410 -90.63979 36088 ft 462 kts 227°
2026-05-03 22:11 33.06513 -90.69022 36093 ft 461 kts 227°
2026-05-03 22:12 33.01630 -90.74043 36104 ft 462 kts 227°
2026-05-03 22:12 32.96777 -90.79025 36099 ft 462 kts 227°
2026-05-03 22:13 32.91895 -90.84029 36094 ft 460 kts 227°
2026-05-03 22:13 32.87041 -90.88997 36091 ft 459 kts 227°
2026-05-03 22:14 32.82152 -90.93995 36092 ft 462 kts 227°
2026-05-03 22:14 32.77259 -90.98987 36082 ft 460 kts 227°
2026-05-03 22:15 32.72403 -91.03934 36091 ft 459 kts 227°
2026-05-03 22:15 32.67516 -91.08907 36073 ft 459 kts 227°
2026-05-03 22:16 32.62688 -91.13812 36089 ft 460 kts 227°
2026-05-03 22:16 32.57821 -91.18748 36080 ft 456 kts 227°
2026-05-03 22:17 32.52970 -91.23663 36082 ft 459 kts 227°
2026-05-03 22:17 32.48124 -91.28565 36077 ft 457 kts 227°
2026-05-03 22:18 32.43281 -91.33455 36075 ft 456 kts 228°
2026-05-03 22:18 32.38451 -91.38327 36070 ft 457 kts 228°
2026-05-03 22:19 32.33613 -91.43198 36078 ft 456 kts 228°
2026-05-03 22:19 32.28771 -91.48066 36074 ft 454 kts 228°
2026-05-03 22:20 32.23946 -91.52912 36073 ft 457 kts 228°
2026-05-03 22:20 32.19098 -91.57770 36061 ft 452 kts 228°
2026-05-03 22:21 32.14304 -91.62573 36077 ft 456 kts 229°
2026-05-03 22:21 32.09414 -91.67460 36088 ft 453 kts 228°
2026-05-03 22:22 32.04566 -91.72301 36101 ft 455 kts 228°
2026-05-03 22:22 31.99759 -91.77090 36104 ft 453 kts 228°
2026-05-03 22:23 31.94906 -91.81924 36095 ft 456 kts 228°
2026-05-03 22:23 31.90100 -91.86699 36100 ft 452 kts 228°
2026-05-03 22:24 31.85257 -91.91508 36094 ft 453 kts 228°
2026-05-03 22:24 31.80411 -91.96311 36091 ft 454 kts 228°
2026-05-03 22:25 31.75576 -92.01097 36098 ft 454 kts 229°
2026-05-03 22:25 31.70745 -92.05868 36089 ft 450 kts 229°
2026-05-03 22:26 31.65926 -92.10628 36093 ft 452 kts 229°
2026-05-03 22:26 31.61115 -92.15370 36098 ft 453 kts 229°
2026-05-03 22:27 31.56291 -92.20117 36095 ft 452 kts 229°
2026-05-03 22:27 31.51444 -92.24882 36093 ft 453 kts 229°
2026-05-03 22:28 31.46645 -92.29591 36109 ft 453 kts 229°
2026-05-03 22:28 31.41827 -92.34312 36113 ft 451 kts 229°
2026-05-03 22:28 31.39400 -92.36690 36320 ft 452 kts 229°
2026-05-03 22:29 31.36991 -92.39047 36114 ft 451 kts 230°